North Platte, NE

4:20 AM CDT on May 30, 2017 (GMT -0500)
North Platte Regional-Bird

Weather History for KLBF - December, 2012

Change the Weather History Date:

Tuesday, December 25, 2012

  Actual Average Record
Temperature  
Mean Temperature 6 °F 24 °F  
Max Temperature 14 °F 38 °F 65 °F (1999)
Min Temperature -3 °F 11 °F -25 °F (1879)
Degree Days  
Heating Degree Days 59 41  
Month to date heating degree days 918 986  
Since 1 July heating degree days 2405 2537  
Cooling Degree Days 0 0  
Month to date cooling degree days 0 0  
Year to date cooling degree days 1245 768  
Moisture  
Dew Point 3 °F    
Average Humidity 77    
Maximum Humidity 87    
Minimum Humidity 66    
Precipitation  
Precipitation 0.08 in 0.01 in 0.57 in (2016)
Month to date precipitation 0.34 0.33  
Year to date precipitation 10.01 20.15  
Snow  
Snow 1.00 in 0.20 in 4.00 in (1888)
Month to date snowfall 3.9 3.7  
Since 1 July snowfall 6.6 9.9  
Snow Depth 1.00 in    
Sea Level Pressure  
Sea Level Pressure 30.38 in    
Wind  
Wind Speed 6 mph (NNE)    
Max Wind Speed 15 mph    
Max Gust Speed 18 mph    
Visibility 5 miles    
Events Snow    
T = Trace of Precipitation, MM = Missing Value Source: NWS Daily Summary

Daily Weather History Graph

Daily Weather History Graph

Search for Another Location

Airport or City:

Trip Planner

Search our weather history database for the weather conditions in past years. The results will help you decide how hot, cold, wet, or windy it might be!

Date:

Astronomy

Dec. 25, 2012 Rise Set
Actual Time 8:06 AM CST 5:19 PM CST
Civil Twilight 7:35 AM CST 5:51 PM CST
Nautical Twilight 7:00 AM CST 6:25 PM CST
Astronomical Twilight 6:27 AM CST 6:59 PM CST
Moon 3:29 PM CST (12/25) 5:40 AM CST (12/25)
Length of Visible Light 10h 15m
Length of Day
9h 13m
Waxing Gibbous, 94% of the Moon is Illuminated
Dec 25
Waxing Gibbous
Dec 28
Full
Jan 4
Last Quarter
Jan 11
New
Jan 18
First Quarter

Hourly Weather History & Observations

Time (CST) Temp. Windchill Dew Point Humidity Pressure Visibility Wind Dir Wind Speed Gust Speed Precip Events Conditions
12:53 AM 12.0 °F -0.4 °F 5.0 °F 73% 30.30 in 10.0 mi NE 9.2 mph - N/A   Overcast
1:53 AM 10.9 °F -2.6 °F 5.0 °F 77% 30.32 in 6.0 mi NE 10.4 mph - 0.00 in Snow Light Snow
2:46 AM 10.4 °F -3.3 °F 5.0 °F 79% 30.21 in 2.5 mi NNE 10.4 mph - 0.01 in Snow Light Snow
2:53 AM 10.0 °F -3.7 °F 5.0 °F 80% 30.36 in 2.0 mi North 10.4 mph - 0.01 in Snow Light Snow
3:04 AM 10.4 °F -2.4 °F 5.0 °F 79% 30.22 in 2.0 mi NNE 9.2 mph - 0.00 in Snow Light Snow
3:16 AM 10.4 °F -0.4 °F 5.0 °F 79% 30.23 in 1.5 mi NNE 6.9 mph - 0.01 in Snow Light Snow
3:23 AM 10.4 °F -1.5 °F 5.0 °F 79% 30.23 in 1.2 mi NNE 8.1 mph - 0.01 in Snow Light Snow
3:48 AM 10.4 °F -4.1 °F 3.2 °F 73% 30.24 in 2.0 mi NNE 11.5 mph - 0.02 in Snow Light Snow
3:49 AM 10.0 °F -4.5 °F 3.9 °F 76% 30.38 in 2.0 mi NNE 11.5 mph - 0.02 in Snow Light Snow
4:06 AM 10.4 °F -0.4 °F 3.2 °F 73% 30.24 in 1.5 mi NNE 6.9 mph - 0.01 in Snow Light Snow
4:24 AM 8.6 °F -3.7 °F 3.2 °F 79% 30.25 in 2.0 mi NNE 8.1 mph - 0.01 in Snow Light Snow
4:33 AM 8.6 °F -5.5 °F 3.2 °F 79% 30.25 in 1.8 mi North 10.4 mph - 0.01 in Snow Light Snow
4:53 AM 9.0 °F -3.2 °F 3.9 °F 80% 30.40 in 1.5 mi North 8.1 mph - 0.02 in Snow Light Snow
5:16 AM 8.6 °F -3.7 °F 3.2 °F 79% 30.26 in 2.0 mi North 8.1 mph - 0.00 in Snow Light Snow
5:42 AM 8.6 °F -4.7 °F 3.2 °F 79% 30.27 in 1.5 mi North 9.2 mph - 0.01 in Snow Light Snow
5:53 AM 8.1 °F -6.2 °F 3.0 °F 80% 30.43 in 1.5 mi NNE 10.4 mph - 0.01 in Snow Light Snow
6:12 AM 8.6 °F -5.5 °F 3.2 °F 79% 30.28 in 2.0 mi NNE 10.4 mph - 0.01 in Snow Light Snow
6:30 AM 8.6 °F -4.7 °F 1.4 °F 73% 30.28 in 3.0 mi NNE 9.2 mph - 0.01 in Snow Light Snow
6:53 AM 8.1 °F -7.0 °F 1.9 °F 76% 30.45 in 4.0 mi NE 11.5 mph 18.4 mph 0.01 in Snow Light Snow
7:53 AM 7.0 °F -7.5 °F 1.0 °F 77% 30.48 in 5.0 mi NNE 10.4 mph - 0.00 in   Haze
8:53 AM 6.1 °F -6.8 °F -0.0 °F 76% 30.50 in 6.0 mi NNE 8.1 mph - N/A   Haze
9:53 AM 7.0 °F -6.6 °F 1.0 °F 77% 30.52 in 6.0 mi NNE 9.2 mph - N/A   Haze
10:53 AM 10.0 °F -4.5 °F 1.9 °F 70% 30.53 in 7.0 mi NNE 11.5 mph - N/A   Overcast
11:53 AM 12.0 °F -2.0 °F 3.9 °F 70% 30.52 in 10.0 mi NNE 11.5 mph - N/A   Overcast
12:41 PM 12.2 °F -1.0 °F 5.0 °F 73% 30.35 in 1.8 mi North 10.4 mph - 0.00 in Snow Light Snow
12:53 PM 12.0 °F 0.5 °F 5.0 °F 73% 30.50 in 1.2 mi NNE 8.1 mph - 0.01 in Snow Light Snow
1:10 PM 12.2 °F -1.0 °F 5.0 °F 73% 30.34 in 1.5 mi North 10.4 mph - 0.00 in Snow Light Snow
1:21 PM 12.2 °F 0.7 °F 5.0 °F 73% 30.33 in 2.5 mi North 8.1 mph - 0.00 in Snow Light Snow
1:29 PM 12.2 °F 0.7 °F 6.8 °F 79% 30.32 in 3.0 mi North 8.1 mph - 0.00 in Snow Light Snow
1:53 PM 12.9 °F 1.6 °F 5.0 °F 71% 30.48 in 4.0 mi North 8.1 mph - 0.00 in Snow Light Snow
2:41 PM 14.0 °F 5.1 °F 5.0 °F 67% 30.33 in 10.0 mi North 5.8 mph - 0.00 in   Overcast
2:53 PM 14.0 °F 5.1 °F 5.0 °F 67% 30.48 in 10.0 mi NNE 5.8 mph - 0.00 in   Overcast
3:03 PM 14.0 °F 5.1 °F 5.0 °F 67% 30.33 in 10.0 mi North 5.8 mph - N/A   Overcast
3:37 PM 14.0 °F 5.1 °F 5.0 °F 67% 30.33 in 10.0 mi NNE 5.8 mph - N/A   Scattered Clouds
3:53 PM 14.0 °F 8.2 °F 5.0 °F 67% 30.48 in 10.0 mi NNE 3.5 mph - N/A   Clear
4:53 PM 12.0 °F 5.9 °F 3.9 °F 70% 30.48 in 10.0 mi ENE 3.5 mph - N/A   Mostly Cloudy
5:53 PM 12.0 °F - 3.9 °F 70% 30.48 in 10.0 mi Calm Calm - N/A   Overcast
6:53 PM 10.9 °F - 3.9 °F 73% 30.47 in 10.0 mi Calm Calm - N/A   Overcast
7:53 PM 5.0 °F - 1.0 °F 84% 30.48 in 10.0 mi Calm Calm - N/A   Clear
8:53 PM 1.9 °F - -2.9 °F 80% 30.46 in 10.0 mi Calm Calm - N/A   Clear
9:53 PM 1.0 °F - -4.0 °F 79% 30.45 in 10.0 mi Calm Calm - N/A   Clear
10:53 PM -0.0 °F - -5.1 °F 79% 30.43 in 10.0 mi Calm Calm - N/A   Overcast
11:53 PM -2.9 °F - -8.0 °F 79% 30.42 in 10.0 mi Calm Calm - N/A   Clear